Language: 


Des rapports , des résumés tant et plus, au choix de chacun....


Données statistiques de la station
Quotidien Rapport Février 21, 2017 Unités:  Anglais    Métrique   les deux
« Précédent Jour
Suivant Jour »
Quotidien Hebdomadaire Mensuel Annuel Actuel
  Haut: Bas: Moyen:
Température: 53.8 °F 32 °F 51.1 °F
Pt de rosée: 52.3 °F 48.9 °F 50 °F
Humidité: 98 % 0 % 96 %
Vitesse du vent: 27.1 mph 5.6 mph 10.7 mph
Rafales: 27.1 mph - -
Vent:- - WSW
Pression: 30.1 in 29.9 in -
Précipitation: 0.23 in    
Historical Graphs
 
 
Données statistiques pour Février 21, 2017
Heure Température Point de rosée Pression Vent Vitesse du vent Refales Humidité Pluie (taux horaire)
00:01 50.9 °F 50.2 °F 30 in West 10.7 mph 16.1 mph 97 % 0 in
00:06 50.9 °F 50.2 °F 30 in WSW 12.3 mph 16.1 mph 97 % 0 in
00:11 50.9 °F 50.2 °F 30 in West 10.1 mph 15.9 mph 97 % 0 in
00:16 50.9 °F 50.2 °F 30 in WSW 7.8 mph 15.4 mph 97 % 0 in
00:21 50.9 °F 50.2 °F 30 in West 10.1 mph 15.4 mph 97 % 0 in
00:26 50.9 °F 50.2 °F 30 in WSW 9.6 mph 13.2 mph 97 % 0 in
00:27 50.9 °F 50.2 °F 30 in WSW 13 mph 13.2 mph 97 % 0 in
00:32 50.9 °F 50.2 °F 30 in WSW 10.5 mph 13 mph 97 % 0 in
00:37 50.9 °F 50.2 °F 30 in WSW 12.8 mph 15.2 mph 97 % 0 in
00:42 50.9 °F 50.2 °F 30 in West 10.3 mph 15.2 mph 97 % 0 in
00:47 50.7 °F 49.8 °F 30 in West 10.3 mph 12.8 mph 97 % 0 in
00:52 50.7 °F 49.8 °F 30 in WSW 6.3 mph 12.5 mph 97 % 0 in
00:57 50.7 °F 49.8 °F 30 in WSW 9.2 mph 15.2 mph 97 % 0 in
01:02 50.7 °F 49.8 °F 30 in West 9.8 mph 15.2 mph 97 % 0 in
01:07 50.9 °F 50.2 °F 30 in West 11 mph 14.5 mph 97 % 0 in
01:12 50.9 °F 50.2 °F 30 in WSW 12.1 mph 14.3 mph 97 % 0 in
01:17 50.9 °F 50.2 °F 30 in West 8.1 mph 13.2 mph 97 % 0 in
01:22 50.9 °F 50.2 °F 30 in West 12.8 mph 13.2 mph 97 % 0 in
01:27 50.9 °F 50.2 °F 30 in WSW 8.5 mph 13.2 mph 97 % 0 in
01:32 50.9 °F 50.2 °F 30 in West 7.2 mph 13 mph 97 % 0 in
01:37 51.1 °F 50.2 °F 30 in West 11 mph 13 mph 97 % 0 in
01:42 51.1 °F 50.2 °F 30 in West 8.7 mph 12.3 mph 97 % 0 in
01:47 51.1 °F 50.2 °F 30 in West 10.5 mph 13.2 mph 97 % 0 in
01:52 51.1 °F 50.2 °F 30 in West 8.5 mph 13.2 mph 97 % 0 in
01:57 51.1 °F 50.2 °F 30 in West 9.8 mph 12.8 mph 97 % 0 in
02:02 32 °F 50.2 °F 30 in West 8.1 mph 11.9 mph 0 % 0 in
02:07 51.1 °F 50.2 °F 30 in West 6 mph 12.8 mph 97 % 0 in
02:12 51.1 °F 50.2 °F 30 in West 13.9 mph 13.9 mph 97 % 0 in
02:17 51.1 °F 50.2 °F 30 in West 10.3 mph 14.5 mph 97 % 0 in
02:22 51.1 °F 50.2 °F 30 in West 7.2 mph 14.5 mph 97 % 0 in
02:27 51.1 °F 50.2 °F 30 in West 12.8 mph 13.2 mph 97 % 0 in
02:32 51.1 °F 50.2 °F 30 in West 7.8 mph 13.2 mph 97 % 0 in
02:37 51.1 °F 50.2 °F 30 in West 10.7 mph 12.8 mph 97 % 0 in
02:42 51.1 °F 50.2 °F 30 in West 7.6 mph 10.7 mph 97 % 0 in
02:47 51.1 °F 50.2 °F 30 in West 8.1 mph 11.9 mph 97 % 0 in
02:52 51.1 °F 50.2 °F 30 in West 9.8 mph 11.9 mph 97 % 0 in
02:57 50.9 °F 50.2 °F 30 in West 7.8 mph 9.8 mph 97 % 0 in
03:02 50.9 °F 50.2 °F 30 in West 8.1 mph 9.8 mph 97 % 0 in
03:07 50.9 °F 50.2 °F 30 in West 7.8 mph 8.1 mph 97 % 0 in
03:12 51.1 °F 50.2 °F 30 in West 9.6 mph 9.6 mph 97 % 0 in
03:17 51.1 °F 50.2 °F 30 in WSW 7.4 mph 9.6 mph 97 % 0 in
03:22 51.1 °F 50.2 °F 30 in West 5.6 mph 9.8 mph 97 % 0 in
03:27 51.1 °F 50.2 °F 30 in West 8.7 mph 9.8 mph 97 % 0 in
03:32 51.1 °F 50.2 °F 30 in West 8.7 mph 9.8 mph 97 % 0 in
03:37 51.1 °F 50.2 °F 30 in West 10.3 mph 10.3 mph 97 % 0 in
03:42 51.1 °F 50.2 °F 30 in West 6.5 mph 10.3 mph 97 % 0 in
03:47 51.1 °F 50.2 °F 30 in West 7.8 mph 10.3 mph 97 % 0 in
03:52 51.1 °F 50.2 °F 30 in West 7.8 mph 9.8 mph 97 % 0 in
03:57 51.1 °F 50.2 °F 30 in West 8.7 mph 9.8 mph 97 % 0 in
04:02 51.1 °F 50.2 °F 30 in West 9.8 mph 9.8 mph 97 % 0 in
04:03 51.1 °F 50.2 °F 30 in WSW 9.4 mph 9.8 mph 97 % 0 in
04:08 51.1 °F 50.2 °F 30 in West 8.1 mph 9.8 mph 97 % 0 in
04:13 51.1 °F 50.2 °F 30 in West 7.4 mph 12.1 mph 97 % 0 in
04:18 51.1 °F 50.2 °F 30 in West 6 mph 12.1 mph 97 % 0 in
04:23 51.1 °F 50.2 °F 30 in West 8.7 mph 12.1 mph 97 % 0 in
04:28 51.1 °F 50 °F 30 in West 8.9 mph 12.1 mph 96 % 0 in
04:33 51.1 °F 50.2 °F 30 in West 8.7 mph 12.5 mph 97 % 0 in
04:38 51.1 °F 50 °F 30 in West 10.7 mph 13.2 mph 96 % 0 in
04:43 51.1 °F 50 °F 30 in West 7.8 mph 13.2 mph 96 % 0 in
04:48 51.1 °F 50 °F 30 in West 7.6 mph 13 mph 96 % 0 in
04:53 51.1 °F 50 °F 30 in West 8.7 mph 13 mph 96 % 0 in
04:58 51.1 °F 50 °F 30 in West 7.8 mph 12.8 mph 96 % 0 in
05:03 51.1 °F 50 °F 30 in West 10.3 mph 13.9 mph 96 % 0 in
05:08 51.1 °F 50 °F 30 in West 8.5 mph 13.9 mph 96 % 0 in
05:13 51.1 °F 50 °F 30 in West 9.8 mph 13.2 mph 96 % 0 in
05:18 51.1 °F 50 °F 30 in West 9.8 mph 14.8 mph 96 % 0 in
05:23 51.1 °F 50 °F 30 in West 9.8 mph 14.8 mph 96 % 0 in
05:28 51.1 °F 50 °F 30 in West 8.7 mph 12.5 mph 96 % 0 in
05:33 51.1 °F 50 °F 30 in WSW 8.7 mph 12.3 mph 96 % 0 in
05:38 51.1 °F 50 °F 30 in WSW 10.1 mph 12.3 mph 96 % 0 in
05:43 51.1 °F 50 °F 30 in West 10.1 mph 12.1 mph 96 % 0 in
05:48 51.1 °F 50 °F 30 in West 9.4 mph 12.1 mph 96 % 0 in
05:53 51.1 °F 50 °F 30 in West 10.3 mph 12.3 mph 96 % 0 in
05:58 51.1 °F 50 °F 30 in West 8.1 mph 12.3 mph 96 % 0 in
06:03 50.9 °F 49.8 °F 30 in WSW 10.5 mph 11 mph 96 % 0 in
06:08 50.9 °F 49.8 °F 30 in WSW 7.4 mph 10.7 mph 96 % 0 in
06:13 50.9 °F 49.8 °F 30 in West 6.3 mph 10.7 mph 96 % 0 in
06:18 50.7 °F 49.6 °F 30 in WSW 6 mph 10.1 mph 96 % 0 in
06:23 50.7 °F 49.6 °F 30 in West 7.4 mph 10.1 mph 96 % 0 in
06:28 50.5 °F 49.5 °F 30 in WSW 10.5 mph 10.5 mph 96 % 0 in
06:33 50.5 °F 49.5 °F 30 in WSW 8.7 mph 11.9 mph 96 % 0 in
06:38 50.5 °F 49.5 °F 30 in WSW 7.8 mph 11.9 mph 96 % 0 in
06:43 50.5 °F 49.5 °F 30 in WSW 7.4 mph 12.3 mph 96 % 0 in
06:48 50.5 °F 49.5 °F 30 in WSW 7.2 mph 12.3 mph 96 % 0 in
06:53 50.5 °F 49.5 °F 30 in WSW 7.6 mph 10.7 mph 96 % 0 in
06:58 50.5 °F 49.5 °F 30 in WSW 8.1 mph 10.5 mph 96 % 0 in
07:03 50.5 °F 49.5 °F 30 in WSW 10.5 mph 12.1 mph 96 % 0 in
07:08 50.5 °F 49.5 °F 30 in WSW 9.8 mph 12.8 mph 96 % 0.01 in
07:13 50.5 °F 49.5 °F 30 in West 7.4 mph 12.8 mph 96 % 0.01 in
07:18 50.4 °F 49.3 °F 30 in WSW 9.8 mph 11.2 mph 96 % 0.01 in
07:23 50.4 °F 49.3 °F 30 in West 7.6 mph 11 mph 96 % 0.01 in
07:28 50.4 °F 49.3 °F 30 in WSW 8.5 mph 12.1 mph 96 % 0.01 in
07:33 50.4 °F 49.3 °F 30 in WSW 7.4 mph 12.1 mph 96 % 0.01 in
07:38 50.4 °F 49.3 °F 30 in WSW 7.8 mph 10.7 mph 96 % 0.01 in
07:43 50.4 °F 49.3 °F 30 in WSW 8.1 mph 10.3 mph 96 % 0.02 in
07:48 50.2 °F 49.1 °F 30 in WSW 6.3 mph 10.3 mph 96 % 0.02 in
07:53 50.2 °F 49.1 °F 30 in WSW 6 mph 10.1 mph 96 % 0.02 in
07:58 50.2 °F 49.5 °F 30 in WSW 8.5 mph 8.7 mph 97 % 0.02 in
08:03 50.2 °F 49.5 °F 30 in West 7.8 mph 11 mph 97 % 0.02 in
08:08 50.2 °F 49.5 °F 30 in West 8.5 mph 11 mph 97 % 0.01 in
08:13 50.2 °F 49.5 °F 30 in WSW 6.7 mph 10.3 mph 97 % 0.02 in
08:18 50.2 °F 49.5 °F 30 in West 6.5 mph 10.3 mph 97 % 0.03 in
08:23 50.2 °F 49.5 °F 30 in WSW 7.6 mph 11 mph 97 % 0.03 in
08:28 50.2 °F 49.5 °F 30 in West 6 mph 11 mph 97 % 0.03 in
08:33 50.2 °F 49.5 °F 30 in West 8.7 mph 9.8 mph 97 % 0.06 in
08:38 50.2 °F 49.5 °F 30 in West 10.7 mph 10.7 mph 97 % 0.06 in
08:43 50.2 °F 49.5 °F 30 in West 5.8 mph 12.5 mph 97 % 0.06 in
08:48 50.2 °F 49.5 °F 30 in West 10.1 mph 13 mph 97 % 0.06 in
08:53 50.2 °F 49.5 °F 30 in West 10.7 mph 13 mph 97 % 0.07 in
08:58 50.2 °F 49.5 °F 30 in West 7.2 mph 12.5 mph 97 % 0.07 in
09:03 50 °F 49.3 °F 30 in West 8.1 mph 12.5 mph 97 % 0.07 in
09:08 50 °F 49.3 °F 30 in WSW 8.7 mph 12.3 mph 97 % 0.07 in
09:13 50 °F 49.3 °F 30 in WSW 8.1 mph 12.3 mph 97 % 0.07 in
09:18 50 °F 49.3 °F 30 in West 7.8 mph 12.3 mph 97 % 0.07 in
09:23 50 °F 49.3 °F 30 in WSW 11 mph 11.2 mph 97 % 0.07 in
09:28 50 °F 49.3 °F 30 in WSW 5.8 mph 11 mph 97 % 0.07 in
09:33 50 °F 49.3 °F 30 in West 7.6 mph 14.8 mph 97 % 0.06 in
09:38 50 °F 49.3 °F 30 in WSW 5.6 mph 14.8 mph 97 % 0.06 in
09:43 50 °F 49.5 °F 30 in West 7.4 mph 13.2 mph 98 % 0.04 in
09:48 50 °F 49.5 °F 30 in WSW 7.8 mph 13 mph 98 % 0.04 in
09:53 50 °F 49.5 °F 30 in West 7.8 mph 13.2 mph 98 % 0.04 in
09:58 50.2 °F 49.6 °F 30 in West 7.4 mph 13.2 mph 98 % 0.04 in
10:03 50.2 °F 49.6 °F 30 in WSW 10.5 mph 13.2 mph 98 % 0.04 in
10:08 50.2 °F 49.6 °F 30 in West 10.1 mph 13.2 mph 98 % 0.04 in
10:13 50.2 °F 49.6 °F 30 in West 8.5 mph 12.3 mph 98 % 0.03 in
10:18 50.2 °F 49.6 °F 30 in West 10.5 mph 12.8 mph 98 % 0.04 in
10:23 50.2 °F 49.6 °F 30 in West 10.3 mph 12.8 mph 98 % 0.04 in
10:28 50.4 °F 49.8 °F 30 in West 9.8 mph 13.4 mph 98 % 0.04 in
10:33 50.4 °F 49.8 °F 30 in WSW 9.8 mph 13.4 mph 98 % 0.03 in
10:38 50.4 °F 49.8 °F 30 in West 10.1 mph 13.6 mph 98 % 0.04 in
10:43 50.5 °F 50 °F 30 in WSW 10.1 mph 13.6 mph 98 % 0.04 in
10:48 50.5 °F 50 °F 30 in WSW 9.8 mph 12.3 mph 98 % 0.03 in
10:53 50.5 °F 50 °F 30 in WSW 11 mph 12.3 mph 98 % 0.03 in
10:58 50.5 °F 50 °F 30 in WSW 8.5 mph 12.3 mph 98 % 0.03 in
11:03 50.5 °F 50 °F 30 in West 7.8 mph 12.5 mph 98 % 0.04 in
11:08 50.5 °F 50 °F 30 in West 10.5 mph 12.5 mph 98 % 0.04 in
11:13 50.7 °F 50.2 °F 30 in West 10.5 mph 13 mph 98 % 0.04 in
11:18 50.7 °F 50.2 °F 30 in West 10.5 mph 13 mph 98 % 0.02 in
11:23 50.7 °F 50.2 °F 30.1 in WSW 13 mph 13.2 mph 98 % 0.03 in
11:28 50.7 °F 50.2 °F 30.1 in WSW 8.9 mph 13.2 mph 98 % 0.03 in
11:33 50.7 °F 50.2 °F 30.1 in West 8.5 mph 13.2 mph 98 % 0.03 in
11:38 50.7 °F 50.2 °F 30.1 in WSW 8.5 mph 13.2 mph 98 % 0.02 in
11:43 50.7 °F 50.2 °F 30.1 in West 6.3 mph 11.4 mph 98 % 0.02 in
11:48 50.7 °F 50.2 °F 30.1 in West 12.8 mph 13.2 mph 98 % 0.03 in
11:53 50.9 °F 50.4 °F 30.1 in West 10.1 mph 13.2 mph 98 % 0.03 in
11:58 50.9 °F 50.4 °F 30.1 in WSW 8.1 mph 12.8 mph 98 % 0.03 in
12:03 50.9 °F 50.4 °F 30.1 in WSW 10.5 mph 15.7 mph 98 % 0.02 in
12:08 51.1 °F 50.5 °F 30.1 in WSW 9.8 mph 15.7 mph 98 % 0.02 in
12:13 51.1 °F 50.5 °F 30.1 in WSW 7.8 mph 12.8 mph 98 % 0.03 in
12:18 51.3 °F 50.7 °F 30.1 in West 12.8 mph 12.8 mph 98 % 0.03 in
12:23 51.3 °F 50.7 °F 30 in West 10.3 mph 14.1 mph 98 % 0.02 in
12:28 51.3 °F 50.7 °F 30 in WSW 6.3 mph 14.1 mph 98 % 0.02 in
12:33 51.4 °F 50.9 °F 30 in WSW 9.8 mph 12.8 mph 98 % 0.02 in
12:38 51.4 °F 50.9 °F 30.1 in West 8.7 mph 12.8 mph 98 % 0.02 in
12:43 51.6 °F 51.1 °F 30.1 in West 8.5 mph 12.8 mph 98 % 0.02 in
12:48 51.8 °F 51.3 °F 30.1 in West 7.8 mph 12.1 mph 98 % 0.01 in
12:53 52 °F 51.4 °F 30 in West 10.1 mph 12.1 mph 98 % 0.01 in
12:58 52.2 °F 51.6 °F 30 in West 8.1 mph 11 mph 98 % 0.01 in
13:03 52.2 °F 51.6 °F 30 in WSW 8.7 mph 12.5 mph 98 % 0.01 in
13:08 52.2 °F 51.6 °F 30 in West 10.7 mph 13 mph 98 % 0.01 in
13:13 52.3 °F 51.6 °F 30 in West 10.3 mph 13 mph 98 % 0 in
13:18 52.3 °F 51.6 °F 30 in WSW 5.6 mph 13.6 mph 98 % 0 in
13:23 52.3 °F 51.6 °F 30 in West 7.6 mph 13.6 mph 98 % 0 in
13:28 52.3 °F 51.6 °F 30 in West 10.3 mph 13 mph 98 % 0 in
13:33 52.3 °F 51.6 °F 30 in WSW 6.3 mph 15.9 mph 98 % 0 in
13:38 52.3 °F 51.6 °F 30 in West 11 mph 15.9 mph 98 % 0 in
13:43 52.2 °F 51.6 °F 30 in WSW 12.5 mph 16.1 mph 98 % 0 in
13:48 52.2 °F 51.6 °F 30 in WSW 11.9 mph 16.1 mph 98 % 0 in
13:53 52.3 °F 51.4 °F 30 in WSW 11 mph 14.1 mph 97 % 0 in
13:58 52.3 °F 51.4 °F 30 in WSW 8.5 mph 13.2 mph 97 % 0 in
14:03 52.5 °F 51.8 °F 30 in WSW 8.7 mph 13.2 mph 97 % 0 in
14:08 52.5 °F 51.8 °F 30 in West 8.7 mph 12.8 mph 97 % 0 in
14:13 52.9 °F 52 °F 30 in WSW 8.1 mph 12.8 mph 97 % 0 in
14:18 53.1 °F 52 °F 30 in West 10.1 mph 13.6 mph 96 % 0 in
14:23 53.2 °F 52.2 °F 30 in WSW 7.8 mph 13.6 mph 96 % 0 in
14:28 53.2 °F 52 °F 30 in West 9.8 mph 13.4 mph 95 % 0 in
14:33 53.4 °F 52.2 °F 30 in WSW 10.3 mph 16.3 mph 95 % 0 in
14:38 53.4 °F 52.2 °F 30 in West 11 mph 16.3 mph 95 % 0 in
14:43 53.8 °F 52.3 °F 30 in West 10.3 mph 15.2 mph 95 % 0 in
14:48 53.8 °F 52 °F 30 in WSW 10.5 mph 15.2 mph 94 % 0 in
14:53 53.8 °F 52 °F 30 in West 10.7 mph 13.2 mph 94 % 0 in
14:58 53.4 °F 51.8 °F 30 in WSW 10.7 mph 15.2 mph 94 % 0 in
15:03 53.4 °F 51.8 °F 30 in SW 8.1 mph 15.2 mph 94 % 0 in
15:08 53.4 °F 51.8 °F 30 in West 11 mph 14.1 mph 94 % 0 in
15:13 53.2 °F 51.6 °F 30 in SW 10.3 mph 14.1 mph 94 % 0 in
15:18 53.2 °F 51.4 °F 30 in WSW 12.1 mph 15.2 mph 94 % 0 in
15:23 53.2 °F 51.4 °F 30 in West 10.1 mph 15.2 mph 94 % 0 in
15:28 53.1 °F 51.6 °F 30 in West 7.6 mph 14.8 mph 95 % 0 in
15:33 53.1 °F 51.6 °F 30 in WSW 11.4 mph 14.8 mph 95 % 0 in
15:38 53.1 °F 51.6 °F 30 in West 10.1 mph 14.8 mph 95 % 0 in
15:43 53.1 °F 51.6 °F 30 in West 6.5 mph 13 mph 95 % 0 in
15:48 53.2 °F 51.4 °F 30 in WSW 6 mph 13 mph 94 % 0 in
15:53 53.2 °F 51.6 °F 30 in WSW 7.8 mph 10.7 mph 94 % 0 in
15:58 53.2 °F 51.4 °F 30 in West 8.5 mph 12.8 mph 94 % 0 in
16:03 53.2 °F 51.4 °F 30 in WSW 8.1 mph 12.8 mph 94 % 0 in
16:08 53.1 °F 51.6 °F 30 in West 6.5 mph 12.5 mph 95 % 0 in
16:13 52.9 °F 51.4 °F 30 in WSW 8.1 mph 12.5 mph 95 % 0 in
16:18 52.9 °F 51.4 °F 30 in WSW 13 mph 13.2 mph 95 % 0 in
16:23 52.9 °F 51.4 °F 30 in WSW 7.8 mph 13.2 mph 95 % 0 in
16:28 53.1 °F 51.6 °F 30 in WSW 7.6 mph 13 mph 95 % 0 in
16:33 52.9 °F 51.4 °F 30 in West 10.7 mph 11 mph 95 % 0 in
16:38 52.5 °F 51.3 °F 30 in WSW 8.5 mph 13 mph 95 % 0 in
16:43 52.5 °F 51.3 °F 30 in WSW 8.1 mph 13 mph 95 % 0 in
16:48 52.5 °F 51.3 °F 30 in WSW 13.2 mph 13.2 mph 95 % 0 in
16:53 52.5 °F 51.3 °F 30 in WSW 10.3 mph 15.4 mph 95 % 0 in
16:58 52.3 °F 50.9 °F 30 in WSW 5.8 mph 15.4 mph 95 % 0 in
17:03 52.2 °F 50.7 °F 30 in WSW 7.4 mph 12.8 mph 95 % 0 in
17:08 52.2 °F 50.7 °F 30 in WSW 10.1 mph 11 mph 95 % 0 in
17:13 52 °F 50.5 °F 30 in West 12.5 mph 13 mph 95 % 0 in
17:18 51.8 °F 50.4 °F 30 in WSW 10.7 mph 13 mph 95 % 0 in
17:23 51.8 °F 50.4 °F 30 in WSW 10.7 mph 13.2 mph 95 % 0 in
17:28 51.6 °F 50.2 °F 30 in WSW 6 mph 13.2 mph 95 % 0 in
17:33 51.6 °F 50.2 °F 30 in WSW 10.3 mph 12.5 mph 95 % 0 in
17:38 51.6 °F 50.2 °F 30 in WSW 10.5 mph 14.8 mph 95 % 0 in
17:43 51.4 °F 50 °F 30 in WSW 10.1 mph 15.2 mph 95 % 0 in
17:48 51.4 °F 50 °F 30 in WSW 12.5 mph 15.9 mph 95 % 0 in
17:53 51.3 °F 49.8 °F 30 in SW 8.7 mph 16.1 mph 95 % 0 in
17:58 51.3 °F 49.8 °F 30 in SW 13.2 mph 16.1 mph 95 % 0 in
18:03 51.3 °F 49.8 °F 30 in WSW 13.9 mph 14.8 mph 95 % 0 in
18:08 51.1 °F 49.6 °F 30 in WSW 13.2 mph 16.8 mph 95 % 0.01 in
18:13 51.1 °F 49.6 °F 30 in WSW 9.8 mph 16.8 mph 95 % 0.01 in
18:18 50.9 °F 49.8 °F 30 in West 11 mph 15.9 mph 96 % 0.01 in
18:23 50.9 °F 49.8 °F 30 in WSW 13.9 mph 17.2 mph 96 % 0.01 in
18:28 50.9 °F 49.8 °F 30 in WSW 15.2 mph 18.1 mph 96 % 0.01 in
18:33 50.9 °F 49.8 °F 30 in WSW 12.5 mph 18.1 mph 96 % 0.01 in
18:38 50.7 °F 49.6 °F 30 in SSW 10.3 mph 17 mph 96 % 0.01 in
18:43 50.7 °F 49.6 °F 30 in WSW 15.2 mph 15.7 mph 96 % 0.01 in
18:48 50.7 °F 49.6 °F 30 in West 13.9 mph 19.5 mph 96 % 0.01 in
18:53 50.7 °F 49.6 °F 30 in WSW 12.5 mph 19.5 mph 96 % 0.01 in
18:58 50.7 °F 49.6 °F 30 in WSW 12.8 mph 19.5 mph 96 % 0.01 in
19:03 50.7 °F 49.6 °F 30 in WSW 11 mph 19.5 mph 96 % 0.01 in
19:08 50.7 °F 49.6 °F 30 in WSW 15.4 mph 17.4 mph 96 % 0 in
19:13 50.7 °F 49.6 °F 30 in WSW 10.1 mph 17.7 mph 96 % 0 in
19:18 50.5 °F 49.5 °F 30 in WSW 10.7 mph 17.7 mph 96 % 0 in
19:23 50.5 °F 49.5 °F 30 in WSW 15.4 mph 15.4 mph 96 % 0 in
19:28 50.5 °F 49.5 °F 30 in WSW 14.8 mph 15.9 mph 96 % 0 in
19:33 50.5 °F 49.5 °F 30 in WSW 13 mph 21 mph 96 % 0 in
19:38 50.5 °F 49.1 °F 30 in WSW 16.1 mph 21 mph 95 % 0 in
19:43 50.5 °F 49.1 °F 30 in West 17.9 mph 22.4 mph 95 % 0 in
19:48 50.5 °F 49.1 °F 30 in WSW 17.4 mph 22.4 mph 95 % 0 in
19:53 50.5 °F 49.1 °F 30 in WSW 15.7 mph 21.5 mph 95 % 0 in
19:58 50.5 °F 49.1 °F 30 in WSW 14.5 mph 21.5 mph 95 % 0 in
20:03 50.5 °F 49.1 °F 30 in West 11 mph 22.4 mph 95 % 0 in
20:08 50.5 °F 49.1 °F 30 in WSW 12.8 mph 22.4 mph 95 % 0 in
20:13 50.5 °F 49.1 °F 30 in West 22.8 mph 22.8 mph 95 % 0 in
20:18 50.5 °F 49.1 °F 30 in WSW 12.8 mph 23.3 mph 95 % 0 in
20:23 50.5 °F 49.1 °F 29.9 in West 14.5 mph 23.3 mph 95 % 0 in
20:28 50.5 °F 49.1 °F 29.9 in WSW 17.7 mph 20.8 mph 95 % 0 in
20:33 50.5 °F 49.1 °F 29.9 in WSW 17 mph 19.7 mph 95 % 0 in
20:38 50.4 °F 48.9 °F 29.9 in WSW 13.6 mph 19.7 mph 95 % 0 in
20:43 50.4 °F 48.9 °F 29.9 in West 10.1 mph 20.1 mph 95 % 0 in
20:48 50.4 °F 48.9 °F 29.9 in West 13 mph 20.1 mph 95 % 0 in
20:53 50.4 °F 48.9 °F 30 in WSW 13.4 mph 21.9 mph 95 % 0 in
20:58 50.4 °F 48.9 °F 30 in WSW 19.9 mph 21.9 mph 95 % 0 in
21:03 50.4 °F 48.9 °F 30 in WSW 14.8 mph 19.9 mph 95 % 0.01 in
21:08 50.4 °F 48.9 °F 29.9 in WSW 23.7 mph 23.7 mph 95 % 0.01 in
21:13 50.4 °F 48.9 °F 29.9 in WSW 19.5 mph 23.7 mph 95 % 0.01 in
21:18 50.4 °F 48.9 °F 29.9 in WSW 16.8 mph 22.1 mph 95 % 0.01 in
21:23 50.4 °F 48.9 °F 29.9 in WSW 13.2 mph 20.6 mph 95 % 0.01 in
21:28 50.4 °F 48.9 °F 29.9 in West 12.8 mph 20.6 mph 95 % 0.01 in
21:33 50.4 °F 48.9 °F 29.9 in West 15.4 mph 22.6 mph 95 % 0.01 in
21:38 50.5 °F 49.1 °F 29.9 in West 23.7 mph 23.7 mph 95 % 0.01 in
21:43 50.5 °F 49.1 °F 29.9 in WSW 17.2 mph 23.7 mph 95 % 0.01 in
21:48 50.5 °F 49.1 °F 29.9 in WSW 15.2 mph 23.7 mph 95 % 0.01 in
21:53 50.5 °F 49.1 °F 29.9 in WSW 16.1 mph 23.7 mph 95 % 0.01 in
21:58 50.5 °F 49.1 °F 29.9 in West 19.7 mph 23.7 mph 95 % 0.01 in
22:04 50.5 °F 49.1 °F 29.9 in West 22.8 mph 24.4 mph 95 % 0 in
22:09 50.5 °F 49.1 °F 29.9 in West 16.1 mph 24.4 mph 95 % 0 in
22:14 50.5 °F 49.1 °F 29.9 in WSW 15.4 mph 22.8 mph 95 % 0 in
22:19 50.5 °F 49.1 °F 29.9 in WSW 13 mph 24.6 mph 95 % 0 in
22:24 50.5 °F 49.1 °F 29.9 in WSW 17.4 mph 24.6 mph 95 % 0 in
22:29 50.5 °F 49.1 °F 29.9 in WSW 23.5 mph 24.2 mph 95 % 0 in
22:34 50.5 °F 49.1 °F 29.9 in WSW 19.7 mph 24.2 mph 95 % 0 in
22:39 50.7 °F 49.3 °F 29.9 in West 18.8 mph 26.8 mph 95 % 0 in
22:44 50.7 °F 49.3 °F 29.9 in WSW 12.8 mph 26.8 mph 95 % 0 in
22:49 50.5 °F 49.1 °F 29.9 in WSW 13.2 mph 25.3 mph 95 % 0 in
22:54 50.5 °F 49.1 °F 29.9 in WSW 22.6 mph 23 mph 95 % 0 in
22:59 50.5 °F 49.1 °F 29.9 in WSW 18.8 mph 23 mph 95 % 0 in
23:04 50.5 °F 49.1 °F 29.9 in WSW 15.2 mph 23 mph 95 % 0 in
23:09 50.5 °F 49.1 °F 29.9 in WSW 15.2 mph 20.8 mph 95 % 0 in
23:14 50.5 °F 49.1 °F 29.9 in West 15.2 mph 25.1 mph 95 % 0 in
23:19 50.5 °F 49.1 °F 29.9 in WSW 12.8 mph 25.1 mph 95 % 0 in
23:24 50.5 °F 49.1 °F 29.9 in WSW 18.8 mph 24.2 mph 95 % 0 in
23:29 50.4 °F 48.9 °F 29.9 in WSW 18.6 mph 22.1 mph 95 % 0 in
23:34 50.4 °F 48.9 °F 29.9 in WSW 15.9 mph 19.9 mph 95 % 0 in
23:39 50.4 °F 48.9 °F 29.9 in WSW 22.4 mph 23.9 mph 95 % 0 in
23:44 50.4 °F 48.9 °F 29.9 in West 19.9 mph 24.4 mph 95 % 0 in
23:49 50.4 °F 48.9 °F 29.9 in WSW 21.3 mph 24.4 mph 95 % 0 in
23:54 50.4 °F 48.9 °F 29.9 in WSW 27.1 mph 27.1 mph 95 % 0 in
23:59 50.4 °F 48.9 °F 29.9 in WSW 16.3 mph 27.1 mph 95 % 0 in
Le Gheer Warneton
Courtoisie de Weather Underground - 2.5 mb

Mise a jour : 18/12/2017 04:04:13
Généré par Cumulus 1.9.4 (1099)